{"data":{"norad_id":63049,"intl_designator":"2025-034W","name":"STARLINK-32829","alt_names":[],"object_type":"PAYLOAD","status":"ACTIVE","operator":null,"country":"US","launch_date":"2025-02-18","launch_site_code":"AFETR","launch_vehicle":null,"mission":null,"orbit_class":"UNKNOWN","rcs_meters":null,"size_class":null,"mass_kg":null,"dimensions":null,"purposes":["comms"],"wikipedia_slug":null,"has_3d_model":false,"image_url":null,"decayed_at":null,"tle_current":{"epoch":"2026-05-24T15:41:00.630528Z","epoch_age_seconds":108268,"freshness":"FRESH","line1":"1 63049U 25034W   26144.65347952  .00004301  00000+0  13845-3 0  9995","line2":"2 63049  53.1595 277.6071 0001221  89.7414 270.3729 15.34378215 70546","mean_motion":15.34378215,"eccentricity":0.0001221,"inclination_deg":53.1595,"raan_deg":277.6071,"arg_perigee_deg":89.7414,"mean_anomaly_deg":270.3729,"bstar":0.00013845,"rev_number":7054,"period_min":93.849090525572,"perigee_km":461.93271608483,"apogee_km":463.60326508353,"semimajor_km":6840.9049905842,"source":"CELESTRAK","updated_at":"2026-05-25T13:38:19.870125Z"}}}